Tracking 21076 objects as of 10-Aug-2020
HD Live streaming from Space Station
objects crossing your sky now
Track the most recent launched group of Starlink satellites

PSLV DEB


PSLV DEB is no longer on orbit


NORAD ID: 27107
Int'l Code: 2001-049BB
Perigee: N/A
Apogee: N/A
Inclination: N/A
Period: N/A
Semi major axis: N/A
RCS: N/A
Launch date: October 22, 2001
Source: India (IND)
Launch site: SRIHARIKOTA (SRI)
Decay date: 2013-09-16

Note: This is SATELLITE DEBRIS
aabbcc
Your satellite tracking list
Your tracking list is empty




NASA's NSSDC Master Catalog

Two Line Element Set (TLE):
1 27107U 01049BB  13258.69636635  .11695962  28508-5  22204-2 0  9993
2 27107 097.7620 157.5171 0004549 207.7058 179.4835 16.32034045381117
Source of the keplerian elements: AFSPC